This is the latest recevied weather packets stored in our database for station/object KC5DAQ-22. If no packets are shown the sender has not sent any weather packets the latest 10 day(s).
| Time | Temp. | Humidity | Pressure | Rain* | Wind** | Luminosity | Snow |
|---|---|---|---|---|---|---|---|
| 1777680097 | 15° C | 95% | 1010.9 hPa | 3.3 mm | - | 12 W/m² | - |
| 1777680037 | 15° C | 95% | 1010.9 hPa | 3.05 mm | - | 14 W/m² | - |
| 1777679977 | 15° C | 95% | 1010.7 hPa | 3.05 mm | - | 12 W/m² | - |
| 1777679914 | 15° C | 95% | 1010.6 hPa | 3.05 mm | - | 12 W/m² | - |
| 1777679853 | 15° C | 95% | 1010.6 hPa | 3.05 mm | - | 12 W/m² | - |
| 1777679792 | 15° C | 95% | 1010.6 hPa | 3.05 mm | - | 12 W/m² | - |
| 1777679732 | 15° C | 95% | 1010.5 hPa | 3.05 mm | - | 18 W/m² | - |
| 1777679673 | 15° C | 95% | 1010.2 hPa | 3.05 mm | - | 18 W/m² | - |
| 1777679612 | 15° C | 95% | 1010 hPa | 3.05 mm | - | 18 W/m² | - |
| 1777679552 | 15° C | 95% | 1009.7 hPa | 3.05 mm | - | 28 W/m² | - |
| 1777679493 | 15° C | 95% | 1009.4 hPa | 3.05 mm | - | 39 W/m² | - |
| 1777679431 | 15° C | 95% | 1009 hPa | 3.05 mm | - | 46 W/m² | - |
| 1777679372 | 15° C | 95% | 1008.8 hPa | 3.05 mm | - | 56 W/m² | - |
| 1777679311 | 15° C | 95% | 1008.6 hPa | 3.05 mm | - | 53 W/m² | - |
| 1777679251 | 15° C | 95% | 1008.6 hPa | 3.05 mm | - | 41 W/m² | - |
| 1777679193 | 15° C | 95% | 1008.7 hPa | 3.05 mm | - | 14 W/m² | - |
| 1777679133 | 15° C | 95% | 1008.8 hPa | 3.05 mm | - | 14 W/m² | - |
| 1777679071 | 15° C | 95% | 1008.9 hPa | 3.05 mm | - | 11 W/m² | - |
| 1777679011 | 15° C | 95% | 1008.9 hPa | 3.05 mm | - | 9 W/m² | - |
| 1777678951 | 15° C | 95% | 1009 hPa | 3.05 mm | - | 9 W/m² | - |
| 1777678893 | 15° C | 95% | 1009 hPa | 3.05 mm | - | 9 W/m² | - |
| 1777678832 | 15° C | 95% | 1008.8 hPa | 3.05 mm | - | 11 W/m² | - |
| 1777678773 | 15° C | 95% | 1008.9 hPa | 3.05 mm | - | 11 W/m² | - |
| 1777678712 | 15° C | 95% | 1009.1 hPa | 2.79 mm | - | 9 W/m² | - |
| 1777678651 | 15° C | 95% | 1009.3 hPa | 2.79 mm | - | 9 W/m² | - |
* Rain latest hour (hover to see other rain measurements)
** Current wind speed in m/s (hover to see current wind gust speed)